Location: Auckland
(36.8670°S, 174.7670°E)
Time: 07:31:29
(UTC+12:00)

NOSS 2-1 (E) - Pass Details

Date: 27 April 2019
Orbit: 471 x 1733 km, 63.3° (Epoch: 14 May)

Event Time Altitude Azimuth Distance (km) Brightness Sun altitude
Rises 21:52:06 0° 210° (SSW) 4,632 8.5 -50.0°
Reaches altitude 10° 21:56:32 10° 194° (SSW) 3,421 7.6 -50.8°
Enters shadow 21:57:24 12° 189° (S) 3,211 7.4 -51.0°
